Temperature
6 5 5 5 6 7 7 7 7 7 8 8 8 8 8 9 9 9 9 9 10 10 11 11 11 11 11 12 12 12 12 12 12 12 12 12 12 12 12 12 12 12 12 12
4 5 5 6 6 7 7 7 7 7 8 8 8 8 8 8 8 9 9 9 9 9 10 10 11 11 11 11 11 11 11 11 11 11 11 11 11 11 11 11 11 11 11 11
4 5 6 6 6 6 7 7 7 7 7 8 8 7 7 8 8 8 9 9 9 9 9 10 10 10 10 10 10 11 11 11 11 11 11 11 11 11 11 11 11 11 11 11
4 5 6 6 6 6 6 7 7 7 7 6 7 7 7 7 7 7 8 8 8 9 9 9 9 10 10 10 10 10 10 10 11 11 11 11 11 10 11 10 10 10 10 10
4 5 5 5 6 6 6 7 7 7 6 6 6 6 6 7 7 7 7 8 8 8 9 9 9 9 9 9 9 10 10 10 10 10 10 10 10 10 10 10 10 10 10 10
4 5 5 6 6 6 7 6 6 5 5 6 6 6 6 6 7 7 7 7 8 8 8 8 8 9 9 9 9 9 9 9 10 10 10 10 10 10 10 9 9 9 9 9
3 4 5 6 6 6 6 5 5 5 5 5 6 6 6 6 6 7 7 7 7 8 8 8 8 8 8 8 9 9 9 9 9 9 9 9 9 9 9 9 9 9 9 9
3 4 4 5 5 5 5 5 5 5 5 5 5 5 5 6 6 7 7 7 7 7 7 7 8 8 8 8 8 8 8 9 9 9 8 8 8 8 8 8 8 8 8 8
2 3 4 5 5 5 5 4 5 4 4 5 5 5 5 5 5 5 6 6 6 6 7 7 7 7 7 7 8 8 8 8 8 8 8 8 8 8 8 8 8 8 8 8
2 2 3 4 5 5 5 4 4 4 5 5 5 4 5 5 5 5 5 5 5 6 6 7 7 7 7 7 7 7 7 7 7 7 7 7 7 7 7 7 7 7 8 8
2 2 2 3 3 3 4 4 3 3 3 4 5 5 5 4 5 4 4 5 5 6 6 6 6 6 6 6 7 7 7 7 7 7 7 7 7 7 7 7 7 7 7 7
1 1 1 2 3 3 3 3 3 3 3 3 3 4 4 4 4 4 4 5 5 5 5 6 6 6 6 6 6 6 6 6 6 6 6 6 6 6 6 6 6 6 6 6
1 0 1 3 3 2 2 2 2 2 2 2 3 4 4 3 4 4 4 4 4 5 5 5 5 5 5 5 5 6 6 6 6 6 6 6 6 6 6 6 6 6 6 6
1 -0 1 3 3 1 1 2 1 2 2 2 2 3 3 3 3 3 4 4 4 4 4 4 4 4 4 5 5 5 5 5 5 5 5 5 5 5 5 5 5 5 5 5
-0 -0 -0 0 1 1 1 1 1 1 2 2 2 2 3 2 2 3 3 3 3 3 3 4 4 4 4 4 4 4 4 4 4 4 5 5 4 4 4 5 5 5 5 5
-2 -1 -1 0 1 1 1 1 1 1 1 1 1 2 2 2 3 2 3 3 2 2 3 3 3 3 3 3 3 4 4 4 4 4 4 4 4 4 4 4 4 4 4 4
-3 -2 -1 -0 -0 0 0 0 1 1 0 0 1 2 1 1 1 2 2 2 2 2 2 3 3 3 3 3 3 3 3 3 3 3 3 3 3 3 3 3 3 3 3 3
-3 -3 -3 -2 -1 0 2 -0 -0 0 -0 -1 -0 -0 0 1 1 2 2 2 2 2 2 2 2 2 2 2 2 3 3 2 2 2 2 3 2 2 2 3 3 3 3 3
-3 -3 -3 -3 -2 -1 -0 -1 -1 -1 -1 -1 -1 -1 0 1 1 1 2 2 2 2 2 2 2 2 2 2 2 2 2 2 2 2 2 2 2 2 2 2 2 2 2 2
-4 -4 -3 -3 -1 -0 1 -1 -1 -1 -0 -1 -1 -1 -1 -0 -1 -0 2 2 1 1 1 1 1 1 1 1 1 1 1 1 1 1 1 1 1 1 1 1 1 1 1 1
-4 -4 -4 -3 -3 -2 -1 -2 -1 0 1 -0 -1 -1 -1 -1 -0 0 1 1 1 1 1 1 1 1 1 1 1 0 0 0 0 0 1 1 1 1 1 1 1 1 1 1
-4 -4 -4 -4 -3 -1 -2 -2 -2 -1 -0 -0 -0 -0 -0 -0 -0 -0 0 0 0 0 0 0 0 0 -0 -0 -0 -0 -0 -0 -0 -0 0 -0 0 0 0 0 0 0 0 1
-4 -4 -4 -3 -2 -2 -2 -1 -0 -0 -0 -0 -0 0 -0 -0 -0 -0 -0 -0 -0 -0 -0 -0 -1 -1 -1 -1 -1 -1 -1 -1 -1 -1 -1 -1 -1 -0 -0 -0 -0 -0 0 0
-5 -5 -5 -5 -4 -3 -2 -1 -0 -0 -0 -0 -0 -0 -1 -1 -1 -1 -1 -1 -1 -1 -1 -1 -1 -1 -1 -1 -1 -1 -1 -1 -1 -1 -1 -1 -1 -1 -1 -1 -1 -0 -0 -1
-5 -6 -5 -5 -5 -3 -2 -1 -0 -0 -1 -1 -1 -1 -1 -1 -1 -1 -1 -1 -1 -1 -1 -1 -1 -1 -2 -2 -2 -2 -2 -2 -1 -1 -1 -1 -1 -1 -1 -1 -1 -1 -1 -1
-5 -5 -5 -3 -2 -3 -1 -0 -1 -1 -1 -1 -1 -1 -2 -2 -2 -2 -2 -2 -2 -2 -2 -2 -2 -2 -2 -2 -2 -2 -2 -2 -2 -2 -2 -2 -2 -2 -2 -2 -2 -2 -2 -2
Wind_Speed
1 2 5 8 8 6 6 5 5 5 4 4 7 8 7 4 4 5 5 5 6 5 4 3 2 3 5 4 5 5 6 6 6 5 4 4 3 3 2 4 5 6 6 7
2 3 6 5 5 5 6 5 4 3 3 4 5 7 5 5 5 7 7 7 7 5 2 2 2 3 4 4 4 5 5 5 5 4 4 3 3 2 2 3 4 5 5 5
3 4 3 3 4 5 6 7 6 4 2 1 2 4 5 4 3 3 5 6 6 7 6 4 4 4 3 4 4 4 4 4 4 5 4 3 3 2 2 2 2 4 5 5
1 3 1 2 3 5 5 6 6 4 1 2 3 3 5 4 4 4 5 5 6 6 5 5 5 4 4 3 2 3 3 3 4 5 5 6 4 4 3 3 3 3 5 5
2 1 1 2 4 4 5 3 3 4 3 1 1 3 5 3 5 7 6 6 6 6 6 6 6 5 4 3 3 2 3 3 3 4 5 6 4 2 3 3 3 3 3 5
2 2 1 2 3 3 2 2 3 2 2 2 4 4 4 5 8 7 6 6 5 5 5 5 4 4 3 3 2 2 3 3 3 3 4 5 5 5 5 5 4 3 2 2
4 3 2 0 1 1 2 5 2 1 0 4 3 3 6 6 6 7 7 6 5 6 5 5 4 4 3 3 3 2 3 2 2 3 4 4 5 6 7 6 5 4 3 2
1 3 3 2 1 2 3 5 4 3 3 2 2 5 5 4 3 3 3 4 4 4 5 5 6 5 5 4 4 3 3 3 3 3 3 3 4 4 4 5 5 4 3 3
1 4 3 2 1 3 3 3 3 3 1 1 3 4 5 2 0 2 3 3 4 4 4 4 4 5 5 4 4 4 4 3 3 3 3 3 4 3 3 3 4 3 2 2
2 2 4 3 2 2 2 4 3 3 2 2 3 3 4 3 4 4 4 4 4 4 3 3 3 4 4 4 4 4 4 4 4 3 3 3 4 4 4 3 3 3 3 3
1 2 3 2 1 2 1 2 2 3 3 3 2 5 3 5 5 6 7 6 5 5 4 4 3 3 3 2 3 3 3 3 3 3 3 3 3 3 3 3 3 3 3 3
0 2 1 4 3 1 1 3 3 3 2 3 2 5 3 3 4 4 4 4 4 4 4 4 4 3 2 2 2 3 3 3 4 4 3 3 3 3 3 3 3 3 3 3
1 3 1 3 3 3 1 1 1 3 3 3 3 6 4 3 3 2 3 3 3 2 2 2 2 2 2 2 2 2 2 3 3 4 3 3 4 4 4 3 2 3 3 3
3 2 4 6 4 2 2 2 1 3 2 3 6 8 8 7 5 4 3 2 2 2 2 2 2 2 2 2 2 2 2 2 2 3 3 4 4 4 4 3 3 2 3 3
3 1 2 4 4 2 2 3 3 4 5 6 6 7 10 7 5 3 2 1 1 1 2 2 3 2 2 1 2 2 2 2 2 3 3 3 3 3 3 3 3 2 2 2
2 1 0 2 2 1 3 5 5 6 5 7 7 9 8 6 2 2 2 1 2 3 2 2 2 2 2 2 2 2 2 2 2 2 3 2 2 3 3 3 2 2 2 2
1 2 1 3 3 3 5 6 7 4 4 5 8 9 5 3 2 3 2 2 3 4 3 2 2 2 2 3 3 3 2 2 2 2 2 2 2 2 2 2 2 2 2 2
4 3 2 1 3 4 6 2 4 5 5 6 5 5 4 5 4 3 2 3 3 3 3 2 2 2 2 2 1 1 2 2 2 2 2 2 2 2 2 2 2 2 2 2
3 5 3 2 2 6 6 3 3 4 6 5 7 7 6 3 3 4 3 2 3 3 3 2 2 2 1 1 1 1 1 1 1 1 1 2 2 2 2 2 2 2 2 2
2 3 4 3 3 6 6 2 1 2 6 4 5 6 4 1 1 5 3 1 2 2 1 1 1 0 1 1 1 2 1 1 1 1 1 1 2 2 3 3 2 2 2 2
2 1 3 4 5 8 6 2 3 4 7 3 3 4 3 3 5 4 3 2 1 1 1 0 0 0 1 1 1 1 1 1 1 1 1 1 1 2 2 2 2 2 2 1
6 5 5 5 5 8 4 4 6 7 2 2 2 2 2 3 4 3 2 2 2 1 1 1 1 1 1 0 2 1 1 1 1 1 0 0 0 1 1 2 2 2 2 2
7 8 6 9 8 4 5 6 5 2 3 3 3 3 2 3 3 3 3 2 2 1 1 1 0 1 2 1 1 1 1 1 1 1 1 1 0 1 1 2 2 2 2 2
4 3 4 5 8 6 6 5 4 4 5 4 4 3 3 4 4 4 3 3 2 1 1 1 0 1 2 2 1 1 1 1 1 1 1 1 1 1 1 1 2 2 3 3
6 5 4 6 6 5 6 7 7 6 4 4 3 3 4 4 4 4 3 3 2 2 2 1 1 1 2 2 1 1 0 1 1 2 1 1 1 2 1 1 1 2 2 3
6 7 8 8 7 6 6 5 5 5 5 5 4 3 3 4 5 4 3 3 2 2 1 1 1 1 2 1 1 2 1 0 2 2 1 1 1 1 1 1 1 1 0 0
Wind_Direction
94 120 203 213 212 214 200 200 219 237 227 208 217 234 241 225 188 188 193 185 179 189 196 164 141 136 127 134 138 145 150 153 149 148 145 144 154 159 150 147 146 143 145 152
80 228 239 229 219 212 212 212 217 262 228 211 213 241 246 223 204 198 196 193 185 179 179 160 144 137 141 146 146 145 148 159 161 163 161 156 149 152 159 145 143 147 148 152
180 246 265 225 206 207 218 202 207 216 330 140 182 260 245 245 229 225 201 188 184 181 184 185 165 155 152 148 156 156 163 163 160 152 141 127 106 103 116 143 166 157 156 155
226 258 250 227 215 199 224 214 203 199 161 236 178 225 250 217 227 224 213 198 192 187 179 181 172 159 162 164 155 153 164 164 158 150 156 162 171 178 193 182 174 156 152 150
263 252 206 229 245 213 217 213 182 177 165 264 184 179 261 210 217 225 217 200 193 190 183 179 179 175 171 165 162 162 170 164 165 164 168 172 178 180 160 152 157 165 151 149
278 288 223 227 261 229 201 108 79 74 95 243 219 183 252 221 214 214 211 199 191 187 183 179 177 172 167 161 158 160 161 172 172 176 178 176 171 165 161 166 168 175 166 156
337 312 316 296 78 337 109 116 74 20 310 239 192 185 242 239 217 204 202 197 196 188 182 183 182 187 181 178 173 170 170 183 184 183 184 182 180 175 177 177 173 171 175 185
28 291 300 345 182 199 189 151 154 189 207 258 209 217 249 261 231 193 179 177 182 181 181 189 193 193 192 192 184 180 186 191 189 187 186 184 178 174 179 176 174 178 186 184
175 267 301 300 287 161 153 181 183 139 122 225 248 275 305 319 110 158 170 179 190 192 188 191 194 194 195 192 192 191 190 193 198 191 174 178 175 166 166 169 166 165 169 162
159 259 293 306 9 13 149 147 110 134 159 227 267 264 259 254 228 219 211 212 213 203 200 197 200 209 207 200 198 194 195 198 200 185 175 177 176 165 161 164 172 165 160 156
128 157 312 357 211 198 105 123 137 137 151 165 231 267 241 231 226 214 217 218 215 213 212 209 217 223 215 200 196 198 200 203 198 185 181 169 173 161 160 163 171 171 166 167
101 122 258 260 276 305 170 182 158 158 201 179 192 267 293 262 257 226 228 238 231 220 212 203 212 219 215 209 207 201 199 204 196 188 183 180 167 162 164 163 167 163 165 166
106 104 44 343 348 359 331 288 202 143 128 169 195 265 319 335 318 278 250 243 240 232 213 193 194 204 216 219 214 210 210 207 193 177 175 180 168 172 169 166 172 165 166 170
102 128 178 201 223 197 245 274 204 130 169 217 231 256 293 310 306 304 285 241 214 204 188 184 198 205 208 213 209 212 219 206 192 178 175 179 180 180 176 170 181 179 177 181
92 164 231 253 265 233 239 250 215 206 213 215 246 249 269 283 275 264 250 235 194 215 221 214 212 204 203 205 214 213 204 198 187 179 189 193 184 172 166 166 183 184 184 195
74 147 6 297 282 259 289 273 234 232 243 247 263 274 278 299 311 293 268 226 244 248 250 245 239 222 211 208 213 207 208 207 181 185 205 191 171 165 168 174 178 169 182 192
132 121 105 279 315 4 283 251 216 215 218 207 238 257 287 307 293 266 243 245 249 252 249 240 243 240 239 235 213 203 207 195 174 190 197 180 164 164 173 172 172 177 190 186
151 136 150 308 26 242 245 237 205 216 241 224 247 272 272 262 275 280 238 221 247 258 261 257 251 258 264 258 234 192 180 178 185 191 185 173 172 183 183 170 184 189 182 190
167 151 139 150 243 275 288 252 187 203 266 238 240 266 285 302 345 314 280 224 238 244 246 242 247 250 253 244 214 170 168 170 187 186 183 194 192 192 186 187 204 199 183 197
95 116 134 149 190 240 256 254 209 127 286 256 223 246 270 53 299 281 301 302 279 272 260 249 257 276 236 238 170 157 178 183 196 202 220 219 206 196 197 197 205 201 190 201
135 122 176 191 222 261 258 253 125 166 254 262 211 226 217 211 235 276 305 308 285 262 275 167 141 284 261 235 139 153 179 208 221 216 219 225 221 209 197 183 195 187 174 166
179 177 192 177 206 251 217 151 189 223 252 210 216 226 236 249 279 294 292 288 298 313 341 6 18 319 309 215 145 149 203 209 159 152 185 235 202 204 193 163 177 179 164 165
203 197 192 196 215 246 195 209 233 212 218 226 222 233 230 252 271 285 285 279 270 245 297 337 358 325 323 312 158 163 241 191 146 147 169 198 215 200 200 176 176 177 174 178
247 208 200 241 255 252 244 253 259 233 228 233 226 225 220 242 263 274 276 272 267 257 255 280 265 314 324 331 348 198 216 166 145 158 174 177 164 180 191 196 187 190 193 186
222 182 214 252 271 287 261 240 243 246 242 238 239 230 224 227 249 250 261 256 252 264 270 261 236 247 291 314 334 320 285 150 146 149 161 167 167 168 174 216 227 224 223 205
196 186 194 233 227 214 243 234 220 222 231 230 231 246 243 222 234 244 252 251 243 253 264 275 274 270 284 299 306 305 295 205 150 142 143 159 167 166 164 155 76 25 222 218
Height
1486 1490 1490 1489 1489 1489 1489 1490 1490 1489 1487 1488 1488 1488 1487 1487 1489 1489 1490 1492 1493 1494 1497 1499 1501 1502 1504 1506 1508 1510 1512 1514 1516 1518 1519 1520 1522 1524 1526 1528 1530 1531 1533 1534
1489 1489 1487 1486 1486 1487 1488 1489 1490 1488 1486 1488 1488 1487 1486 1486 1486 1487 1488 1489 1491 1493 1495 1497 1499 1501 1502 1503 1505 1507 1509 1511 1513 1515 1517 1518 1520 1522 1523 1525 1527 1528 1530 1532
1489 1488 1484 1484 1485 1485 1486 1487 1487 1488 1486 1486 1488 1489 1486 1484 1485 1486 1486 1487 1488 1490 1492 1494 1496 1498 1500 1501 1503 1505 1507 1509 1511 1513 1515 1516 1517 1519 1520 1521 1523 1525 1527 1529
1488 1485 1484 1484 1485 1484 1485 1482 1484 1485 1490 1492 1490 1494 1486 1483 1484 1484 1484 1484 1485 1487 1489 1491 1493 1495 1497 1499 1501 1503 1505 1506 1508 1510 1511 1513 1513 1514 1516 1518 1520 1522 1524 1525
1487 1484 1484 1484 1483 1482 1482 1480 1482 1485 1489 1493 1491 1494 1487 1482 1483 1482 1481 1482 1483 1485 1487 1489 1491 1493 1495 1497 1499 1500 1502 1503 1505 1507 1509 1510 1511 1512 1514 1515 1517 1519 1520 1522
1487 1485 1484 1483 1482 1481 1480 1482 1484 1488 1491 1494 1490 1493 1489 1482 1477 1477 1478 1479 1480 1482 1484 1487 1489 1491 1492 1494 1496 1497 1498 1500 1501 1503 1505 1507 1508 1509 1510 1512 1513 1515 1517 1518
1490 1486 1483 1482 1482 1482 1482 1487 1494 1496 1499 1495 1488 1490 1486 1475 1473 1473 1474 1476 1477 1479 1481 1483 1485 1487 1489 1491 1492 1494 1495 1497 1498 1500 1502 1503 1505 1506 1508 1509 1510 1512 1513 1515
1496 1491 1485 1483 1483 1484 1484 1487 1494 1496 1497 1494 1489 1488 1480 1473 1471 1471 1473 1474 1476 1477 1479 1480 1482 1484 1486 1488 1489 1491 1493 1494 1495 1497 1498 1500 1502 1503 1505 1506 1508 1509 1511 1512
1497 1493 1485 1483 1483 1483 1485 1488 1489 1494 1496 1495 1490 1485 1477 1471 1470 1471 1472 1473 1474 1475 1477 1478 1480 1482 1483 1485 1486 1488 1489 1491 1493 1494 1495 1496 1498 1500 1502 1503 1505 1506 1508 1509
1495 1497 1489 1485 1483 1483 1485 1486 1492 1494 1495 1492 1489 1487 1481 1474 1472 1471 1471 1471 1472 1473 1474 1476 1478 1479 1480 1482 1483 1485 1486 1488 1490 1491 1492 1493 1495 1497 1499 1500 1501 1503 1504 1505
1494 1497 1494 1489 1489 1488 1488 1489 1490 1494 1494 1495 1492 1485 1474 1471 1469 1469 1469 1469 1470 1471 1472 1473 1475 1477 1478 1479 1481 1482 1483 1485 1486 1487 1489 1490 1492 1493 1495 1497 1498 1500 1501 1502
1493 1497 1498 1493 1488 1487 1487 1488 1490 1493 1496 1496 1496 1485 1470 1470 1467 1467 1467 1468 1468 1468 1469 1471 1473 1474 1475 1476 1478 1479 1480 1482 1483 1484 1486 1487 1488 1490 1492 1493 1495 1496 1498 1499
1493 1498 1499 1492 1493 1493 1491 1489 1489 1490 1494 1498 1495 1484 1470 1468 1466 1466 1466 1466 1466 1466 1467 1468 1470 1471 1473 1474 1475 1476 1477 1478 1479 1481 1482 1483 1484 1486 1488 1489 1491 1493 1494 1495
1492 1498 1498 1494 1490 1493 1493 1491 1490 1490 1494 1495 1489 1480 1472 1469 1467 1466 1466 1465 1465 1465 1465 1466 1467 1469 1470 1471 1472 1473 1474 1475 1476 1477 1479 1479 1481 1482 1484 1485 1487 1489 1490 1491
1493 1498 1497 1494 1491 1491 1490 1489 1489 1489 1488 1488 1482 1480 1472 1469 1468 1466 1465 1464 1464 1464 1464 1465 1465 1466 1467 1468 1469 1471 1471 1472 1473 1474 1475 1476 1477 1479 1480 1482 1484 1485 1486 1488
1496 1498 1497 1494 1490 1490 1490 1487 1486 1487 1486 1484 1481 1478 1470 1469 1467 1466 1465 1464 1464 1463 1463 1463 1463 1463 1464 1465 1466 1467 1468 1469 1469 1470 1471 1472 1473 1474 1476 1478 1480 1481 1482 1484
1498 1499 1499 1496 1494 1490 1490 1484 1483 1483 1482 1481 1479 1473 1469 1468 1467 1465 1464 1464 1463 1463 1462 1462 1462 1462 1462 1463 1464 1464 1465 1466 1466 1467 1467 1468 1469 1471 1472 1474 1476 1477 1478 1480
1497 1500 1502 1501 1498 1495 1480 1478 1478 1478 1476 1476 1473 1470 1468 1466 1465 1464 1464 1463 1462 1462 1461 1461 1461 1461 1461 1461 1461 1461 1462 1463 1463 1464 1464 1465 1466 1467 1469 1470 1472 1473 1474 1476
1494 1498 1503 1505 1503 1492 1481 1477 1477 1478 1475 1471 1470 1467 1466 1465 1464 1462 1462 1462 1461 1461 1460 1460 1459 1459 1458 1459 1459 1459 1459 1460 1460 1460 1461 1462 1463 1464 1465 1466 1468 1469 1470 1472
1494 1496 1501 1504 1499 1490 1475 1474 1473 1476 1474 1466 1465 1465 1464 1464 1467 1463 1460 1460 1459 1459 1459 1458 1457 1457 1456 1456 1457 1457 1456 1457 1457 1458 1459 1460 1461 1462 1462 1463 1465 1466 1467 1469
1497 1500 1502 1501 1500 1486 1475 1473 1473 1478 1469 1463 1462 1462 1462 1463 1462 1461 1459 1458 1458 1457 1457 1456 1455 1455 1454 1454 1454 1454 1454 1454 1455 1455 1456 1457 1458 1459 1459 1460 1461 1463 1464 1466
1491 1495 1498 1498 1497 1483 1470 1471 1471 1466 1462 1461 1461 1461 1461 1460 1459 1458 1458 1457 1456 1455 1455 1454 1453 1453 1452 1452 1452 1451 1451 1452 1452 1453 1453 1454 1455 1455 1456 1457 1458 1460 1461 1462
1484 1481 1481 1481 1474 1466 1464 1463 1461 1461 1460 1459 1459 1459 1459 1458 1457 1457 1456 1455 1454 1454 1453 1453 1452 1451 1451 1450 1450 1449 1448 1449 1449 1449 1450 1451 1451 1452 1453 1454 1455 1457 1458 1459
1476 1474 1475 1473 1465 1462 1460 1460 1459 1459 1458 1457 1458 1457 1457 1456 1456 1455 1454 1453 1453 1452 1452 1451 1450 1449 1448 1448 1448 1447 1446 1446 1445 1446 1446 1447 1448 1449 1451 1452 1453 1454 1455 1456
1468 1470 1470 1467 1461 1458 1456 1455 1455 1455 1455 1455 1455 1455 1454 1454 1453 1453 1452 1451 1451 1450 1450 1449 1448 1447 1447 1446 1445 1445 1444 1443 1442 1443 1443 1444 1445 1446 1448 1449 1450 1452 1453 1454
1460 1462 1464 1458 1453 1454 1451 1451 1452 1452 1452 1452 1452 1451 1452 1451 1450 1450 1449 1449 1449 1448 1448 1447 1446 1445 1444 1444 1443 1443 1442 1441 1441 1440 1441 1442 1443 1444 1445 1446 1447 1449 1450 1451